Flag for U.S.A. Weather past 2 weeks in Bakersfield, California, U.S.A.

Now
83 °F

Sunny.


Feels Like: 83 °F
Forecast: 68 / 96 °F
Wind: 7 mph from Northwest

Location: Meadows Field

Current Time: Jul 23, 2014 at 9:54:21 PM

Latest Report: Jul 23, 2014 at 8:54 PM


Visibility: 10 mi

Pressure: 29.94 "Hg

Humidity: 44%

Dew point: 59 °F

Location of BakersfieldLocation

Historic Weather in Bakersfield — Graph

°F

Bakersfield temperature yesterday

Maximum temperature yesterday: 97 °F (at 4:54 PM)
Minimum temperature yesterday: 71 °F (at 5:54 AM)
Average temperature yesterday: 82 °F

Past Weeks' High & Low Weather Summary

 TemperatureHumidityPressure
High103 °F (Jul 9, 3:54 PM)68% (Jul 23, 5:54 AM)30.12 "Hg (Jul 23, 5:54 AM)
Low67 °F (Jul 23, 5:54 AM)8% (Jul 9, 1:54 PM)29.72 "Hg (Jul 9, 5:54 PM)
Average85 °F34%29.89 "Hg
* Reported Jul 8 9:54 PM — Jul 23 8:54 PM, Bakersfield, Weather by CustomWeather, © 2014

Note: Actual official high and low records may vary slightly from our data, if they occured in-between our weather recording intervals... More about our weather records

Advertising

Bakersfield weather history for previous 24 hours

 ConditionsComfort  
Time TempWeatherWind HumidityBarometerVisibility
8:54 PM
Jul 23
83 °FSunny.7 mph44%29.94 "Hg10 mi
7:54 PM86 °FSunny.9 mph42%29.93 "Hg10 mi
6:54 PM88 °FSunny.10 mph38%29.93 "Hg10 mi
5:54 PM89 °FSunny.6 mph35%29.94 "Hg10 mi
4:54 PM89 °FSunny.12 mph34%29.96 "Hg10 mi
3:54 PM87 °FSunny.13 mph36%29.98 "Hg10 mi
2:54 PM86 °FSunny.5 mph39%30.01 "Hg10 mi
1:54 PM84 °FSunny.6 mph40%30.03 "Hg10 mi
12:54 PM80 °FSunny.No wind45%30.06 "Hg10 mi
11:54 AM79 °FSunny.No wind47%30.09 "Hg10 mi
10:54 AM75 °FSunny.5 mph54%30.10 "Hg10 mi
9:54 AM73 °FSunny.6 mph55%30.11 "Hg10 mi
8:54 AM70 °FSunny.5 mph61%30.11 "Hg10 mi
7:54 AM68 °FSunny.8 mph68%30.12 "Hg10 mi
6:54 AM67 °FClear.8 mph68%30.10 "Hg10 mi
5:54 AM67 °FClear.7 mph68%30.09 "Hg10 mi
Weather by CustomWeather, © 2014

See weather overviewHow to use our weather pages